Preview of NWS' New Version of Forecast
This preview is not operational and should not be used for support decisions.

Regional Weather Roundup (RWR)

Issued by National Weather Service (NWS)

                            
000
ASUS45 KBOU 151810
RWRCO 

WEATHER ROUNDUP FOR COLORADO
NATIONAL WEATHER SERVICE DENVER/BOULDER CO
1200 PM MDT SAT JUN 15 2019

NOTE: "FAIR" INDICATES FEW OR NO CLOUDS BELOW 12000 FEET WITH NO
SIGNIFICANT WEATHER AND/OR OBSTRUCTIONS TO VISIBILITY.

COZ001>005-013-030-031-151900-
...NORTHWEST COLORADO...
  
CITY           SKY/WX    TMP DP  RH WIND       PRES   REMARKS
CRAIG          FAIR      70  50  49 MISG      30.12F                  
HAYDEN         FAIR      65  43  44 VRB3      30.16S                  
MEEKER         FAIR      69  43  38 SW7       30.13F                  
RANGELY        FAIR      73  44  35 CALM      30.07F                  
RABBIT EARS PA NOT AVBL                                               
STEAMBOAT SPGS FAIR      62  46  55 CALM      30.15F                  
WALDEN         FAIR      61  37  41 CALM      30.23S                  
$$

COZ006>008-011-151900-
...WEST CENTRAL VALLEYS...
  
CITY           SKY/WX    TMP DP  RH WIND       PRES   REMARKS
GRAND JUNCTION FAIR      79  41  25 S3        30.01F                  
MONTROSE       FAIR      69  41  36 N8        30.09S                  
EAGLE          NOT AVBL                                               
RIFLE          FAIR      75  41  29 VRB5      30.06F                  
DELTA          FAIR      77  38  25 S3        30.06S                  
NUCLA          FAIR      75  34  22 W6        30.10F                  
$$

COZ017>023-064>068-151900-
...SOUTHWEST COLORADO...
  
CITY           SKY/WX    TMP DP  RH WIND       PRES   REMARKS
DURANGO        FAIR      75  36  24 MISG      30.09F                  
CORTEZ         FAIR      79  38  22 MISG      30.05F                  
PAGOSA SPRINGS FAIR      71  26  19 SW5       30.16F                  
TELLURIDE      FAIR      63  32  31 NW6       30.26S                  
WOLF CREEK PAS FAIR      50  27  40 S7        30.47S                  
$$

COZ009-010-012-014-032>034-037-058>063-151900-
...CENTRAL COLORADO...
  
CITY           SKY/WX    TMP DP  RH WIND       PRES   REMARKS
ASPEN          FAIR      69  36  29 NW7       30.16F                  
BUENA VISTA    FAIR      68  32  25 SW8       30.16F                  
COPPER MTN     CLOUDY    46  30  53 W3        30.44R                  
BERTHOUD PASS  CLOUDY    36  28  75 NW17G24   30.46S                  
COTTONWOOD PAS CLOUDY    59  32  36 CALM      30.29S                  
GUNNISON       FAIR      66  35  31 CALM      30.16F                  
GRANBY         FAIR      62  43  49 W9G17     30.24S                  
KREMMLING      FAIR      68  43  40 CALM      30.20F                  
LEADVILLE      FAIR      60  29  30 N12G17    30.28S                  
MONARCH PASS   FAIR      55  28  35 MISG      30.51F                  
SALIDA         FAIR      73  36  26 SE16G24   30.21S                  
SUNLIGHT       FAIR      46  32  57 CALM      30.40S                  
WILKERSON PASS CLOUDY    50  30  46 CALM      30.41F THUNDER          
$$

COZ069>075-151900-
...SAN LUIS VALLEY/SANGRE DE CRISTO MOUNTAINS...
  
CITY           SKY/WX    TMP DP  RH WIND       PRES   REMARKS
ALAMOSA        FAIR      71  30  21 SW6       30.13F                  
DEL NORTE      FAIR      65  32  28 SE7       30.18R                  
LA VETA PASS   NOT AVBL                                               
SAGUACHE       PTSUNNY   64  32  29 CALM      30.17S                  
$$

COZ035-036-038>040-151900-
...NORTHERN COLORADO FRONT RANGE...
  
CITY           SKY/WX    TMP DP  RH WIND       PRES   REMARKS
DENVER INTL AP PTSUNNY   75  42  30 N9G18     30.08S                  
AURORA         MOSUNNY   74  44  34 N8G17     30.10R                  
FRONT RANGE AP PTSUNNY  N/A N/A N/A N5        30.09F                  
ERIE MUNI ARPT FAIR      75  40  28 N5        30.12R                  
BOULDER MUN AP FAIR      72  41  33 CALM      30.07S                  
CENTENNIAL     FAIR      74  42  31 NE9G20    30.10S                  
BROOMFIELD     MOSUNNY   73  41  31 N7        30.10S                  
FORT COLLINS     N/A     77  45  32 NE8       30.06S                  
LONGMONT       FAIR      82  44  25 SW5       30.08S                  
$$

COZ041-046-047-076>085-087-088-151900-
...PIKES PEAK/PALMER DIVIDE AND SOUTHERN FOOTHILLS...
  
CITY           SKY/WX    TMP DP  RH WIND       PRES   REMARKS
COLO. SPRINGS  LGT RAIN  71  42  35 E7        30.11R                  
A. F. ACADEMY  PTSUNNY   68  41  37 S7        30.11S                  
SCHRIEVER AFB  NOT AVBL                                               
CHEYENNE MTN   NOT AVBL                                               
ELLICOTT         N/A    N/A N/A N/A N8G16     30.10S                  
FALCON         PTSUNNY   69  38  32 N9G18     30.16S                  
FORT CARSON    NOT AVBL                                               
LIMON          FAIR      72  51  47 N14       30.08R                  
MONUMENT HILL  FAIR      64  41  42 N13G18    30.18R                  
CANON CITY     FAIR      81  45  28 E8        30.03S                  
WALSENBURG     NOT AVBL                                               
TRINIDAD       FAIR      76  44  32 E10G21    30.06S                  
$$

COZ042>045-048>051-090-091-151900-
...NORTHEAST COLORADO...
  
CITY           SKY/WX    TMP DP  RH WIND       PRES   REMARKS
GREELEY ARPT   FAIR      75  46  35 SE6       30.05S                  
AKRON          PTSUNNY   73  52  47 N15G22    30.04R                  
BURLINGTON     FAIR      81  49  32 N14G24    29.99R                  
WRAY           FAIR      81  46  30 N8G22     29.98S                  
YUMA           FAIR      75  21  13 N14       30.00S                  
STERLING       FAIR      77  52  41 NE8       30.00R                  
HOLYOKE        FAIR      81  50  34 N17       29.98S                  
FORT MORGAN    FAIR      76  45  34 NE7       30.05S                  
$$

COZ086-089-092>099-151900-
...SOUTHEAST COLORADO...
  
CITY           SKY/WX    TMP DP  RH WIND       PRES   REMARKS
PUEBLO         FAIR      79  45  29 S7        30.00F                  
LA JUNTA       FAIR      84  45  25 N8        29.97F                  
LAMAR          FAIR      84  47  27 N10G24    29.93F                  
SPRINGFIELD      N/A     79  51  37 N18G25    29.98S                  
$$